"Platform","Reno Beach Station"
"Latitude (deg)",41.68
"Longitude (deg)",-83.25
"Water Depth (m)",7
"Sensor Device","Campbell CR200 Logger analog input and Pololu ACS711EX current sensor"
"Sensor Type","Battery current"
"Sensor Units","amps (+=charging)"
"Measurement","2 minute average of data samples taken at 5 second interval"
"Time means","Time at beginning of averaging period (UTC time zone)"

"Note:","This data was collected for research purposes."
"Note:","Minimal quality checking has been performed so data may contain known or unknown errors."
"Note:","Data provided by NOAA. Please credit NOAA."
"Note:","For more info see www.glerl.noaa.gov/res/recon"

"Time (UTC)","Battery Current"
"YYYY/MM/DD HH:MM","amps"
2021/11/15 17:10, -0.0563862
2021/11/15 17:15, -0.089496
2021/11/15 17:20, 0.00744213
2021/11/15 17:25, 0.031086
2021/11/15 17:30, 0.08893
2021/11/15 17:35, 0.185508
2021/11/15 17:40, 0.141119
2021/11/15 18:05, 0.333954
2021/11/15 18:10, 0.0959978
2021/11/15 18:15, 0.0260503
2021/11/15 18:20, 0.0821118
2021/11/15 18:25, 0.255877
2021/11/15 18:30, 0.0993592
2021/11/15 18:35, -0.0339731
2021/11/15 18:40, -0.0590551
2021/11/15 19:05, -0.0478498
2021/11/15 19:10, -0.117145
2021/11/15 19:15, -0.164744
2021/11/15 19:20, -0.0817879
2021/11/15 19:25, -0.0249262
2021/11/15 19:30, -0.0415057
2021/11/15 19:35, -0.0844692
2021/11/15 19:40, -0.116736
2021/11/15 20:05, -0.112164
2021/11/15 20:10, -0.179068
2021/11/15 20:15, -0.261125
2021/11/15 20:20, -0.176519
2021/11/15 20:25, -0.0127979
2021/11/15 20:30, 0.0807263
2021/11/15 20:35, 0.0863596
2021/11/15 20:40, 0.0847035
2021/11/15 21:05, -0.0369468
2021/11/15 21:10, -0.0876214
2021/11/15 21:15, -0.182294
2021/11/15 21:20, -0.194302
2021/11/15 21:25, -0.180958
2021/11/15 21:30, -0.174352
2021/11/15 21:35, -0.175201
2021/11/15 21:40, -0.122917
2021/11/15 22:05, -0.145484
2021/11/15 22:10, -0.176054
2021/11/15 22:15, -0.260476
2021/11/15 22:20, -0.26501
2021/11/15 22:25, -0.237475
2021/11/15 22:30, -0.217567
2021/11/15 22:35, -0.215998
2021/11/15 22:40, -0.148648
2021/11/15 23:05, -0.148032
2021/11/15 23:10, -0.174767
2021/11/15 23:15, -0.26264
2021/11/15 23:20, -0.266765
2021/11/15 23:25, -0.241861
2021/11/15 23:30, -0.157277
2021/11/15 23:35, -0.14855
2021/11/15 23:40, -0.148429
2021/11/16 00:05, -0.149332
2021/11/16 00:10, -0.177331
2021/11/16 00:15, -0.267106
2021/11/16 00:20, -0.268796
2021/11/16 00:25, -0.246131
2021/11/16 00:30, -0.225245
2021/11/16 00:35, -0.218029
2021/11/16 00:40, -0.156722
2021/11/16 01:05, -0.155143
2021/11/16 01:10, -0.183928
2021/11/16 01:15, -0.270209
2021/11/16 01:20, -0.27269
2021/11/16 01:25, -0.251718
2021/11/16 01:30, -0.227366
2021/11/16 01:35, -0.221526
2021/11/16 01:40, -0.156821
2021/11/16 02:05, -0.152727
2021/11/16 02:10, -0.178517
2021/11/16 02:15, -0.278363
2021/11/16 02:20, -0.272496
2021/11/16 02:25, -0.250453
2021/11/16 02:30, -0.164329
2021/11/16 02:35, -0.153459
2021/11/16 02:40, -0.153087
2021/11/16 03:05, -0.15438
2021/11/16 03:10, -0.183626
2021/11/16 03:15, -0.280955
2021/11/16 03:20, -0.276273
2021/11/16 03:25, -0.258306
2021/11/16 03:30, -0.231176
2021/11/16 03:35, -0.22429
2021/11/16 03:40, -0.160173
2021/11/16 04:05, -0.153906
2021/11/16 04:10, -0.180151
2021/11/16 04:15, -0.284797
2021/11/16 04:20, -0.276415
2021/11/16 04:25, -0.255233
2021/11/16 04:30, -0.229834
2021/11/16 04:35, -0.221945
2021/11/16 04:40, -0.156959
2021/11/16 05:05, -0.153121
2021/11/16 05:10, -0.181478
2021/11/16 05:15, -0.293727
2021/11/16 05:20, -0.279398
2021/11/16 05:25, -0.253263
2021/11/16 05:30, -0.17135
2021/11/16 05:35, -0.158231
2021/11/16 05:40, -0.158797
2021/11/16 06:05, -0.158372
2021/11/16 06:10, -0.182595
2021/11/16 06:15, -0.29623
2021/11/16 06:20, -0.281361
2021/11/16 06:25, -0.258244
2021/11/16 06:30, -0.23399
2021/11/16 06:35, -0.230721
2021/11/16 06:40, -0.167669
2021/11/16 07:05, -0.159896
2021/11/16 07:10, -0.183436
2021/11/16 07:15, -0.29715
2021/11/16 07:20, -0.282488
2021/11/16 07:25, -0.260014
2021/11/16 07:30, -0.232673
2021/11/16 07:35, -0.224331
2021/11/16 07:40, -0.161072
2021/11/16 08:05, -0.159043
2021/11/16 08:10, -0.183565
2021/11/16 08:15, -0.294257
2021/11/16 08:20, -0.279025
2021/11/16 08:25, -0.256849
2021/11/16 08:30, -0.176703
2021/11/16 08:35, -0.156922
2021/11/16 08:40, -0.157132
2021/11/16 09:05, -0.160718
2021/11/16 09:10, -0.192366
2021/11/16 09:15, -0.285859
2021/11/16 09:20, -0.28456
2021/11/16 09:25, -0.259807
2021/11/16 09:30, -0.234409
2021/11/16 09:35, -0.229585
2021/11/16 09:40, -0.162383
2021/11/16 10:05, -0.163014
2021/11/16 10:10, -0.209407
2021/11/16 10:15, -0.295038
2021/11/16 10:20, -0.28537
2021/11/16 10:25, -0.259232
2021/11/16 10:30, -0.234335
2021/11/16 10:35, -0.228311
2021/11/16 10:40, -0.162645
2021/11/16 11:05, -0.15876
2021/11/16 11:10, -0.186575
2021/11/16 11:15, -0.294817
2021/11/16 11:20, -0.281986
2021/11/16 11:25, -0.25523
2021/11/16 11:30, -0.173311
2021/11/16 11:35, -0.160029
2021/11/16 11:40, -0.158733
2021/11/16 12:05, -0.160475
2021/11/16 12:10, -0.190008
2021/11/16 12:15, -0.290535
2021/11/16 12:20, -0.277064
2021/11/16 12:25, -0.257853
2021/11/16 12:30, -0.231429
2021/11/16 12:35, -0.220938
2021/11/16 12:40, -0.142042
2021/11/16 13:05, -0.103323
2021/11/16 13:10, -0.105081
2021/11/16 13:15, -0.178815
2021/11/16 13:20, -0.182971
2021/11/16 13:25, -0.107168
2021/11/16 13:30, 0.0305692
2021/11/16 13:35, 0.138746
2021/11/16 13:40, 0.367461
2021/11/16 14:05, 0.640612
2021/11/16 14:10, 1.14598
2021/11/16 14:15, 1.82747
2021/11/16 14:20, 2.36828
2021/11/16 14:25, 2.24214
2021/11/16 14:30, 1.75377
2021/11/16 14:35, 2.19131
2021/11/16 14:40, 2.23202
2021/11/16 14:45, 1.54381
2021/11/16 14:50, 1.04095
2021/11/16 14:55, 1.02891
2021/11/16 15:00, 1.05749
2021/11/16 15:05, 1.01254
2021/11/16 15:10, 1.0122
2021/11/16 15:15, 1.28013
2021/11/16 15:20, 1.48894
2021/11/16 15:25, 1.50725
2021/11/16 15:30, 1.46338
2021/11/16 15:35, 1.24789
2021/11/16 15:40, 1.42577
2021/11/16 15:45, 1.60298
2021/11/16 15:50, 1.56556
2021/11/16 15:55, 1.32209
2021/11/16 16:00, 1.70356
2021/11/16 16:05, 1.48125
2021/11/16 16:10, 0.902376
2021/11/16 16:15, 0.929431
2021/11/16 16:20, 1.05984
2021/11/16 16:25, 1.0088
2021/11/16 16:30, 0.8246
2021/11/16 16:35, 1.37841
2021/11/16 16:40, 0.92381
2021/11/16 16:45, 0.77702
2021/11/16 16:50, 0.884051
2021/11/16 16:55, 0.832604
2021/11/16 17:00, 0.785001
2021/11/16 17:05, 0.899846
2021/11/16 17:10, 1.05574
2021/11/16 17:15, 0.881561
2021/11/16 17:20, 0.784374
2021/11/16 17:25, 0.404604
2021/11/16 17:30, 0.616761
2021/11/16 17:35, 0.583356
2021/11/16 17:40, 0.663656
2021/11/16 17:45, 0.408335
2021/11/16 17:50, 0.804958
2021/11/16 17:55, 0.612458
2021/11/16 18:00, 0.69644
2021/11/16 18:05, 0.480671
2021/11/16 18:10, 0.45936
2021/11/16 18:15, 0.469352
2021/11/16 18:20, 0.384518
2021/11/16 18:25, 0.514076
2021/11/16 18:30, 0.473803
2021/11/16 18:35, 0.588318
2021/11/16 18:40, 0.468937
2021/11/16 18:45, 0.493603
2021/11/16 18:50, 0.45792
2021/11/16 18:55, 0.509431
2021/11/16 19:00, 0.612514
2021/11/16 19:05, 0.460659
2021/11/16 19:10, 0.407457
2021/11/16 19:15, 0.539811
2021/11/16 19:20, 0.235693
2021/11/16 19:25, 0.149873
2021/11/16 19:30, 0.0620472
2021/11/16 19:35, 0.126516
2021/11/16 19:40, 0.168534
2021/11/16 19:45, 0.228203
2021/11/16 19:50, 0.254015
2021/11/16 19:55, 0.137647
2021/11/16 20:00, 0.321854
2021/11/16 20:05, 0.215638
2021/11/16 20:10, 0.169596
2021/11/16 20:15, 0.302808
2021/11/16 20:20, 0.354603
2021/11/16 20:25, 0.211018
2021/11/16 20:30, 0.218556
2021/11/16 20:35, 0.164237
2021/11/16 20:40, 0.20044
2021/11/16 20:45, 0.230724
2021/11/16 20:50, 0.160333
2021/11/16 20:55, 0.171936
2021/11/16 21:00, 0.165068
2021/11/16 21:05, 0.112814
2021/11/16 21:10, 0.0275402
2021/11/16 21:15, -0.00309814
2021/11/16 21:20, 0.0142759
2021/11/16 21:25, 0.0649534
2021/11/16 21:30, 0.00915661
2021/11/16 22:05, -0.294288
2021/11/16 22:10, -0.338418
2021/11/16 22:15, -0.391619
2021/11/16 22:20, -0.325172
2021/11/16 23:05, -0.315518
2021/11/16 23:10, -0.341616
2021/11/16 23:15, -0.385143
2021/11/16 23:20, -0.327628
2021/11/17 00:05, -0.312357
2021/11/17 00:10, -0.340415
2021/11/17 00:15, -0.388184
2021/11/17 00:20, -0.32483
2021/11/17 01:05, -0.148543
2021/11/17 01:10, -0.170861
2021/11/17 01:15, -0.258752
2021/11/17 01:20, -0.258632
2021/11/17 02:05, -0.149079
2021/11/17 02:10, -0.18
2021/11/17 02:15, -0.269612
2021/11/17 02:20, -0.260414
2021/11/17 03:05, -0.14931
2021/11/17 03:10, -0.175651
2021/11/17 03:15, -0.261023
2021/11/17 03:20, -0.261913
2021/11/17 04:05, -0.149679
2021/11/17 04:10, -0.175577
2021/11/17 04:15, -0.267851
2021/11/17 04:20, -0.256265
2021/11/17 05:05, -0.149242
2021/11/17 05:10, -0.171775
2021/11/17 05:15, -0.26304
2021/11/17 05:20, -0.264721
2021/11/17 06:05, -0.152053
2021/11/17 06:10, -0.174629
2021/11/17 06:15, -0.266857
2021/11/17 06:20, -0.261867
2021/11/17 07:05, -0.15402
2021/11/17 07:10, -0.181521
2021/11/17 07:15, -0.26686
2021/11/17 07:20, -0.261889
2021/11/17 08:05, -0.151333
2021/11/17 08:10, -0.178559
2021/11/17 08:15, -0.26875
2021/11/17 08:20, -0.262477
2021/11/17 09:05, -0.148959
2021/11/17 09:10, -0.178784
2021/11/17 09:15, -0.273884
2021/11/17 09:20, -0.271151
2021/11/17 10:05, -0.150187
2021/11/17 10:10, -0.177448
2021/11/17 10:15, -0.271114
2021/11/17 10:20, -0.268405
2021/11/17 11:05, -0.147137
2021/11/17 11:10, -0.170519
2021/11/17 11:15, -0.257379
2021/11/17 11:20, -0.256181
2021/11/17 12:05, -0.145773
2021/11/17 12:10, -0.169066
2021/11/17 12:15, -0.258967
2021/11/17 12:20, -0.267707
2021/11/17 13:05, -0.069903
2021/11/17 13:10, -0.0994668
2021/11/17 13:15, -0.159459
2021/11/17 13:20, -0.121408
2021/11/17 14:05, -0.0960464
2021/11/17 14:10, -0.125672
2021/11/17 14:15, -0.216484
2021/11/17 14:20, -0.228157
2021/11/17 15:05, -0.203161
2021/11/17 15:10, -0.250514
2021/11/17 15:15, -0.282904
2021/11/17 15:20, -0.259395
2021/11/17 16:05, 0.173475
2021/11/17 16:10, 0.198988
2021/11/17 16:15, 0.0682869
2021/11/17 16:20, 0.064187
2021/11/17 17:05, 0.285321
2021/11/17 17:10, 0.342915
2021/11/17 17:15, 0.27973
2021/11/17 17:20, 0.323026
2021/11/17 18:05, 0.701673
2021/11/17 18:10, 0.311803
2021/11/17 18:15, 0.266476
2021/11/17 18:20, 0.696039
2021/11/17 19:05, 0.245029
2021/11/17 19:10, 0.175869
2021/11/17 19:15, 0.0856084
2021/11/17 19:20, 0.0646917
2021/11/17 20:05, 0.0836292
2021/11/17 20:10, 0.0623707
2021/11/17 20:15, -0.0844076
2021/11/17 20:20, -0.121002
2021/11/17 21:05, -0.0923927
2021/11/17 21:10, -0.136156
2021/11/17 21:15, -0.239149
2021/11/17 21:20, -0.242979
2021/11/17 22:05, -0.134017
2021/11/17 22:10, -0.160632
2021/11/17 22:15, -0.257899
2021/11/17 22:20, -0.25322
2021/11/17 23:05, -0.135421
2021/11/17 23:10, -0.159065
2021/11/17 23:15, -0.257391
2021/11/17 23:20, -0.24409
2021/11/18 00:05, -0.132521
2021/11/18 00:10, -0.155777
2021/11/18 00:15, -0.25113
2021/11/18 00:20, -0.244065
2021/11/18 01:05, -0.134337
2021/11/18 01:10, -0.157332
2021/11/18 01:15, -0.254211
2021/11/18 01:20, -0.253193
2021/11/18 02:05, -0.133124
2021/11/18 02:10, -0.156926
2021/11/18 02:15, -0.258604
2021/11/18 02:20, -0.250797
2021/11/18 03:05, -0.133845
2021/11/18 03:10, -0.154925
2021/11/18 03:15, -0.254652
2021/11/18 03:20, -0.248375
2021/11/18 04:05, -0.131385
2021/11/18 04:10, -0.162621
2021/11/18 04:15, -0.252232
2021/11/18 04:20, -0.255578
2021/11/18 05:05, -0.132032
2021/11/18 05:10, -0.160733
2021/11/18 05:15, -0.250419
2021/11/18 05:20, -0.255575
2021/11/18 06:05, -0.134516
2021/11/18 06:10, -0.160053
2021/11/18 06:15, -0.25519
2021/11/18 06:20, -0.247353
2021/11/18 07:05, -0.132355
2021/11/18 07:10, -0.162436
2021/11/18 07:15, -0.248575
2021/11/18 07:20, -0.249203
2021/11/18 08:05, -0.136169
2021/11/18 08:10, -0.163815
2021/11/18 08:15, -0.258573
2021/11/18 08:20, -0.247294
2021/11/18 09:05, -0.136427
2021/11/18 09:10, -0.160007
2021/11/18 09:15, -0.253811
2021/11/18 09:20, -0.248575
2021/11/18 10:05, -0.138567
2021/11/18 10:10, -0.162559
2021/11/18 10:15, -0.256394
2021/11/18 10:20, -0.251416
2021/11/18 11:05, -0.140436
2021/11/18 11:10, -0.163882
2021/11/18 11:15, -0.256609
2021/11/18 11:20, -0.248913
2021/11/18 12:05, -0.139592
2021/11/18 12:10, -0.16323
2021/11/18 12:15, -0.256117
2021/11/18 12:20, -0.24896
2021/11/18 13:05, -0.0544993
2021/11/18 13:10, -0.0569339
2021/11/18 13:15, -0.131216
2021/11/18 13:20, -0.102055
2021/11/18 14:05, 0.254018
2021/11/18 14:10, 0.31124
2021/11/18 14:15, 0.140842
2021/11/18 14:20, 0.231823
2021/11/18 15:05, 1.37695
2021/11/18 15:10, 1.01155
2021/11/18 15:15, 1.3937
2021/11/18 15:20, 1.12651
2021/11/18 16:05, 0.58101
2021/11/18 16:10, 1.03007
2021/11/18 16:15, 0.429612
2021/11/18 16:20, 0.583369
2021/11/18 17:05, 0.548809
2021/11/18 17:10, 0.256927
2021/11/18 17:15, 0.499689
2021/11/18 17:20, 0.613945
2021/11/18 18:05, 0.257776
2021/11/18 18:10, 0.358192
2021/11/18 18:15, 0.362222
2021/11/18 18:20, 0.438899
2021/11/18 19:05, 0.152226
2021/11/18 19:10, 0.153186
2021/11/18 19:15, 0.154165
2021/11/18 19:20, 0.278527
2021/11/18 19:25, 0.304037
2021/11/18 19:30, 0.324399
2021/11/18 19:35, 0.264044
2021/11/18 19:40, 0.321768
2021/11/18 19:45, 0.331184
2021/11/18 19:50, 0.393685
2021/11/18 19:55, 0.252026
2021/11/18 20:00, 0.200262
2021/11/18 20:05, 0.132035
2021/11/18 20:10, 0.237506
2021/11/18 20:15, -0.0586272
2021/11/18 20:20, 0.256197
2021/11/18 20:25, 0.107507
2021/11/18 20:30, 0.038994
2021/11/18 20:35, 0.0263889
2021/11/18 20:40, -0.0613204
2021/11/18 20:45, -0.0781435
2021/11/18 20:50, -0.110561
2021/11/18 20:55, -0.0408346
2021/11/18 21:00, -0.075453
2021/11/18 21:05, -0.134085
2021/11/18 21:10, -0.239186
2021/11/18 21:15, -0.317085
2021/11/18 21:20, -0.226461
2021/11/18 21:25, -0.203232
2021/11/18 21:30, -0.221877
2021/11/18 21:35, -0.226042
2021/11/18 21:40, -0.250521
2021/11/18 21:45, -0.262199
2021/11/18 21:50, -0.273506
2021/11/18 21:55, -0.283107
2021/11/18 22:00, -0.295032
2021/11/18 22:05, -0.301992
2021/11/18 22:10, -0.336023
2021/11/18 22:15, -0.385869
2021/11/18 22:20, -0.31935
2021/11/18 22:25, -0.306724
2021/11/18 22:30, -0.306705
2021/11/18 22:35, -0.307505
2021/11/18 22:40, -0.30817
2021/11/18 22:45, -0.308167
2021/11/18 22:50, -0.253623
2021/11/18 22:55, -0.231312
2021/11/18 23:00, -0.316205
2021/11/18 23:05, -0.309149
2021/11/18 23:10, -0.333923
2021/11/18 23:15, -0.392753
2021/11/18 23:20, -0.317972
2021/11/18 23:25, -0.231007
2021/11/18 23:30, -0.132555
2021/11/18 23:35, -0.13422
2021/11/18 23:40, -0.135134
2021/11/18 23:45, -0.134399
2021/11/18 23:50, -0.135208
2021/11/18 23:55, -0.138016
2021/11/19 00:00, -0.141694
2021/11/19 00:05, -0.140697
2021/11/19 00:10, -0.166009
2021/11/19 00:15, -0.260639
2021/11/19 00:20, -0.257123
2021/11/19 00:25, -0.203719
2021/11/19 00:30, -0.216663
2021/11/19 00:35, -0.212103
2021/11/19 00:40, -0.151418
2021/11/19 00:45, -0.137714
2021/11/19 00:50, -0.139915
2021/11/19 00:55, -0.139635
2021/11/19 01:00, -0.13897
2021/11/19 01:05, -0.140423
2021/11/19 01:10, -0.16854
2021/11/19 01:15, -0.265346
2021/11/19 01:20, -0.254704
2021/11/19 01:25, -0.207409
2021/11/19 01:30, -0.225472
2021/11/19 01:35, -0.213849
2021/11/19 01:40, -0.155827
2021/11/19 01:45, -0.143406
2021/11/19 01:50, -0.141445
2021/11/19 01:55, -0.139102
2021/11/19 02:00, -0.143606
2021/11/19 02:05, -0.143797
2021/11/19 02:10, -0.168792
2021/11/19 02:15, -0.262132
2021/11/19 02:20, -0.256545
2021/11/19 02:25, -0.207191
2021/11/19 02:30, -0.180133
2021/11/19 02:35, -0.14525
2021/11/19 02:40, -0.147469
2021/11/19 02:45, -0.143988
2021/11/19 02:50, -0.144803
2021/11/19 02:55, -0.143744
2021/11/19 03:00, -0.146327
2021/11/19 03:05, -0.148577
2021/11/19 03:10, -0.17148
2021/11/19 03:15, -0.270926
2021/11/19 03:20, -0.266872
2021/11/19 03:25, -0.211235
2021/11/19 03:30, -0.22981
2021/11/19 03:35, -0.216265
2021/11/19 03:40, -0.161826
2021/11/19 03:45, -0.150975
2021/11/19 03:50, -0.14847
2021/11/19 03:55, -0.145868
2021/11/19 04:00, -0.148054
2021/11/19 04:05, -0.147075
2021/11/19 04:10, -0.174469
2021/11/19 04:15, -0.278065
2021/11/19 04:20, -0.257385
2021/11/19 04:25, -0.207385
2021/11/19 04:30, -0.230358
2021/11/19 04:35, -0.219565
2021/11/19 04:40, -0.16331
2021/11/19 04:45, -0.149085
2021/11/19 04:50, -0.149562
2021/11/19 04:55, -0.14899
2021/11/19 05:00, -0.149495
2021/11/19 05:05, -0.148109
2021/11/19 05:10, -0.172711
2021/11/19 05:15, -0.283886
2021/11/19 05:20, -0.259429
2021/11/19 05:25, -0.209755
2021/11/19 05:30, -0.176814
2021/11/19 05:35, -0.148639
2021/11/19 05:40, -0.148685
2021/11/19 05:45, -0.148143
2021/11/19 05:50, -0.147937
2021/11/19 05:55, -0.151563
2021/11/19 06:00, -0.153185
2021/11/19 06:05, -0.150923
2021/11/19 06:10, -0.178874
2021/11/19 06:15, -0.2834
2021/11/19 06:20, -0.265447
2021/11/19 06:25, -0.215554
2021/11/19 06:30, -0.235671
2021/11/19 06:35, -0.220726
2021/11/19 06:40, -0.163196
2021/11/19 06:45, -0.148177
2021/11/19 06:50, -0.14891
2021/11/19 06:55, -0.149842
2021/11/19 07:00, -0.15365
2021/11/19 07:05, -0.152123
2021/11/19 07:10, -0.176377
2021/11/19 07:15, -0.28363
2021/11/19 07:20, -0.263954
2021/11/19 07:25, -0.215025
2021/11/19 07:30, -0.233239
2021/11/19 07:35, -0.219784
2021/11/19 07:40, -0.164289
2021/11/19 07:45, -0.151406
2021/11/19 07:50, -0.151668
2021/11/19 07:55, -0.149901
2021/11/19 08:00, -0.14947
2021/11/19 08:05, -0.150381
2021/11/19 08:10, -0.175515
2021/11/19 08:15, -0.280223
2021/11/19 08:20, -0.261181
2021/11/19 08:25, -0.220292
2021/11/19 08:30, -0.183088
2021/11/19 08:35, -0.152517
2021/11/19 08:40, -0.148974
2021/11/19 08:45, -0.151342
2021/11/19 08:50, -0.150778
2021/11/19 08:55, -0.152881
2021/11/19 09:00, -0.153367
2021/11/19 09:05, -0.150818
2021/11/19 09:10, -0.177187
2021/11/19 09:15, -0.279792
2021/11/19 09:20, -0.273842
2021/11/19 09:25, -0.218787
2021/11/19 09:30, -0.236884
2021/11/19 09:35, -0.224001
2021/11/19 09:40, -0.16266
2021/11/19 09:45, -0.153499
2021/11/19 09:50, -0.150538
2021/11/19 09:55, -0.149193
2021/11/19 10:00, -0.150341
2021/11/19 10:05, -0.151049
2021/11/19 10:10, -0.177067
2021/11/19 10:15, -0.277588
2021/11/19 10:20, -0.26626
2021/11/19 10:25, -0.217949
2021/11/19 10:30, -0.235606
2021/11/19 10:35, -0.221806
2021/11/19 10:40, -0.166453
2021/11/19 10:45, -0.154084
2021/11/19 10:50, -0.15128
2021/11/19 10:55, -0.150233
2021/11/19 11:00, -0.154121
2021/11/19 11:05, -0.151526
2021/11/19 11:10, -0.171981
2021/11/19 11:15, -0.286386
2021/11/19 11:20, -0.262015
2021/11/19 11:25, -0.212079
2021/11/19 11:30, -0.184898
2021/11/19 11:35, -0.150366
2021/11/19 11:40, -0.15083
2021/11/19 11:45, -0.149344
2021/11/19 11:50, -0.149544
2021/11/19 11:55, -0.150948
2021/11/19 12:00, -0.150307
2021/11/19 12:05, -0.149664
2021/11/19 12:10, -0.170772
2021/11/19 12:15, -0.287374
2021/11/19 12:20, -0.272001
2021/11/19 12:25, -0.221825
2021/11/19 12:30, -0.233531
2021/11/19 12:35, -0.219879
2021/11/19 12:40, -0.161848
2021/11/19 12:45, -0.144228
2021/11/19 12:50, -0.127082
2021/11/19 12:55, -0.10847
2021/11/19 13:00, -0.0698997
2021/11/19 13:05, -0.0667629
2021/11/19 13:10, -0.0634691
2021/11/19 13:15, -0.112448
2021/11/19 13:20, 0.774301
2021/11/19 13:25, 1.51385
2021/11/19 13:30, 1.71227
2021/11/19 13:35, 1.69478
2021/11/19 13:40, 1.65062
2021/11/19 13:45, 1.21007
2021/11/19 13:50, 1.22467
2021/11/19 13:55, 0.983381
2021/11/19 14:00, 1.03867
2021/11/19 14:05, 0.935982
2021/11/19 14:10, 0.534427
2021/11/19 14:15, 0.773042
2021/11/19 14:20, 0.840459
2021/11/19 14:25, 0.452643
2021/11/19 14:30, 0.518666
2021/11/19 14:35, 0.286084
2021/11/19 14:40, 0.481709
2021/11/19 14:45, 0.462685
2021/11/19 14:50, 0.773202
2021/11/19 14:55, 0.587185
2021/11/19 15:00, 0.519922
2021/11/19 15:05, 0.610596
2021/11/19 15:10, 0.235428
2021/11/19 15:15, 0.302005
2021/11/19 15:20, 0.355053
2021/11/19 15:25, 0.377654
2021/11/19 15:30, 0.250896
2021/11/19 15:35, 0.466671
2021/11/19 15:40, 0.119565
2021/11/19 15:45, 0.150551
2021/11/19 15:50, 0.327176
2021/11/19 15:55, 0.19992
2021/11/19 16:00, -0.0337396
2021/11/19 16:05, 0.312791
2021/11/19 16:10, 0.125327
2021/11/19 16:15, 0.137179
2021/11/19 16:20, 0.373809
2021/11/19 16:25, 0.135122
2021/11/19 16:30, 0.0273397
2021/11/19 16:35, 0.256268
2021/11/19 16:40, 0.360271
2021/11/19 16:45, 0.139648
2021/11/19 16:50, 0.123004
2021/11/19 16:55, 0.14268
2021/11/19 17:00, 0.33513
2021/11/19 17:05, 0.189186
2021/11/19 17:10, 0.246507
2021/11/19 17:15, 0.138179
2021/11/19 17:20, -0.0306302
2021/11/19 17:25, 0.167084
2021/11/19 17:30, 0.164991
2021/11/19 17:35, 0.15664
2021/11/19 17:40, 0.100175
2021/11/19 17:45, 0.242496
2021/11/19 17:50, 0.128323
2021/11/19 17:55, 0.11637
2021/11/19 18:00, 0.109896
2021/11/19 18:05, 0.102194
2021/11/19 18:10, 0.160075
2021/11/19 18:15, 0.117607
2021/11/19 18:20, -0.0345364
2021/11/19 18:25, 0.150548
2021/11/19 18:30, 0.0758504
2021/11/19 18:35, 0.0542718
2021/11/19 18:40, 0.274861
2021/11/19 18:45, 0.157194
2021/11/19 18:50, 0.122293
2021/11/19 18:55, 0.182094
2021/11/19 19:00, 0.190636
2021/11/19 19:05, 0.266565
2021/11/19 19:10, 0.297751
2021/11/19 19:15, 0.040715
2021/11/19 19:20, 0.0102156
2021/11/19 19:25, 0.11102
2021/11/19 19:30, 0.0496172
2021/11/19 19:35, 0.106064
2021/11/19 19:40, 0.283301
2021/11/19 19:45, 0.118774
2021/11/19 19:50, 0.186216
2021/11/19 19:55, 0.0904937
2021/11/19 20:00, 0.154854
2021/11/19 20:05, 0.0486018
2021/11/19 20:10, 0.165558
2021/11/19 20:15, 0.179108
2021/11/19 20:20, 0.11673
2021/11/19 20:25, 0.152401
2021/11/19 20:30, 0.098408
2021/11/19 20:35, 0.121566
2021/11/19 20:40, 0.0746531
2021/11/19 20:45, 0.0508578
2021/11/19 20:50, 0.076349
2021/11/19 20:55, 0.0956315
2021/11/19 21:00, 0.0527665
2021/11/19 21:05, 0.126977
2021/11/19 21:10, 0.10534
2021/11/19 21:15, 0.186437
2021/11/19 21:20, 0.0889393
2021/11/19 21:25, 0.0768847
2021/11/19 21:30, 0.0300055
2021/11/19 21:35, 0.000565084
2021/11/19 21:40, -0.0656086
2021/11/19 21:45, -0.102391
2021/11/19 21:50, -0.0906935
2021/11/19 21:55, -0.147032
2021/11/19 22:00, -0.162867
2021/11/19 22:05, -0.173253
2021/11/19 22:10, -0.216167
2021/11/19 22:15, -0.322398
2021/11/19 22:20, -0.320228
2021/11/19 22:25, -0.234095
2021/11/19 22:30, -0.131677
2021/11/19 22:35, -0.132099
2021/11/19 22:40, -0.134897
2021/11/19 22:45, -0.135793
2021/11/19 22:50, -0.134928
2021/11/19 22:55, -0.135098
2021/11/19 23:00, -0.133793
2021/11/19 23:05, -0.13828
2021/11/19 23:10, -0.167909
2021/11/19 23:15, -0.260235
2021/11/19 23:20, -0.250844
2021/11/19 23:25, -0.203715
2021/11/19 23:30, -0.213258
2021/11/19 23:35, -0.208209
2021/11/19 23:40, -0.150874
2021/11/19 23:45, -0.14045
2021/11/19 23:50, -0.142652
2021/11/19 23:55, -0.1405
2021/11/20 00:00, -0.142756
2021/11/20 00:05, -0.141254
2021/11/20 00:10, -0.166982
2021/11/20 00:15, -0.25741
2021/11/20 00:20, -0.252155
2021/11/20 00:25, -0.204509
2021/11/20 00:30, -0.219944
2021/11/20 00:35, -0.208677
2021/11/20 00:40, -0.153964
2021/11/20 00:45, -0.137459
2021/11/20 00:50, -0.141587
2021/11/20 00:55, -0.143126
2021/11/20 01:00, -0.143449
2021/11/20 01:05, -0.143307
2021/11/20 01:10, -0.165831
2021/11/20 01:15, -0.259478
2021/11/20 01:20, -0.253008
2021/11/20 01:25, -0.206089
2021/11/20 01:30, -0.169143
2021/11/20 01:35, -0.144541
2021/11/20 01:40, -0.146364
2021/11/20 01:45, -0.14569
2021/11/20 01:50, -0.144148
2021/11/20 01:55, -0.145133
2021/11/20 02:00, -0.144927
2021/11/20 02:05, -0.142159
2021/11/20 02:10, -0.169987
2021/11/20 02:15, -0.266746